Location: Nordegg
(52.4712°N, 116.0743°W)
Time: 13:54:02
(UTC+00:00)

Envisat - Pass Details

Date: 30 November 2021
Orbit: 764 x 766 km, 98.2° (Epoch: 26 January)

Event Time Altitude Azimuth Distance (km) Brightness Sun altitude
Rises 14:38:38 0° 6° (N) 3,249 6.0 -7.7°
Reaches altitude 10° 14:41:31 10° 350° (N) 2,318 5.1 -7.3°
Maximum altitude 14:45:03 19° 305° (NW) 1,751 4.3 -6.8°
Drops below altitude 10° 14:48:35 10° 261° (W) 2,307 5.0 -6.4°
Sets 14:51:28 0° 244° (WSW) 3,229 5.9 -6.0°
